Time,TemperatureF,DewpointF,PressureIn,WindDirection,WindDirectionDegrees,WindSpeedMPH,WindSpeedGustMPH,Humidity,HourlyPrecipIn,Conditions,Clouds,dailyrainin,SoftwareType,DateUTC
2013-02-26 00:00:00,27.7,17.5,30.17,WSW,248,0.9,0.9,65,0.00,,,0.00,WUHU216HW,2013-02-26 05:00:00,
2013-02-26 00:01:00,27.5,17.3,30.17,WSW,248,0.4,0.9,65,0.00,,,0.00,WUHU216HW,2013-02-26 05:01:00,
2013-02-26 00:06:00,27.2,17.3,30.17,West,270,0.4,1.1,66,0.00,,,0.00,WUHU216HW,2013-02-26 05:06:00,
2013-02-26 00:11:00,26.8,17.3,30.16,West,270,0.4,1.1,67,0.00,,,0.00,WUHU216HW,2013-02-26 05:11:00,
2013-02-26 00:16:00,26.6,16.7,30.17,West,270,0.7,0.9,66,0.00,,,0.00,WUHU216HW,2013-02-26 05:16:00,
2013-02-26 00:21:00,26.8,17.6,30.16,West,270,0.2,0.9,68,0.00,,,0.00,WUHU216HW,2013-02-26 05:21:00,
2013-02-26 00:26:00,26.8,17.3,30.16,West,270,0.9,0.9,67,0.00,,,0.00,WUHU216HW,2013-02-26 05:26:00,
2013-02-26 00:31:00,27.0,17.5,30.16,WSW,248,0.7,1.1,67,0.00,,,0.00,WUHU216HW,2013-02-26 05:31:00,
2013-02-26 00:36:00,26.8,17.6,30.16,West,270,0.7,1.1,68,0.00,,,0.00,WUHU216HW,2013-02-26 05:36:00,
2013-02-26 00:41:00,26.5,17.3,30.17,NW,315,0.0,0.9,68,0.00,,,0.00,WUHU216HW,2013-02-26 05:41:00,
2013-02-26 00:46:00,26.3,17.8,30.18,SE,135,0.0,1.3,70,0.00,,,0.00,WUHU216HW,2013-02-26 05:46:00,
2013-02-26 00:51:00,26.3,17.5,30.18,SW,225,1.1,1.3,69,0.00,,,0.00,WUHU216HW,2013-02-26 05:51:00,
2013-02-26 00:56:00,26.3,17.5,30.18,SW,225,1.1,1.6,69,0.00,,,0.00,WUHU216HW,2013-02-26 05:56:00,
2013-02-26 01:01:00,26.1,17.6,30.18,SW,225,0.4,1.8,70,0.00,,,0.00,WUHU216HW,2013-02-26 06:01:00,
2013-02-26 01:06:00,25.9,17.7,30.18,North,0,0.0,1.8,71,0.00,,,0.00,WUHU216HW,2013-02-26 06:06:00,
2013-02-26 01:11:00,25.7,17.6,30.18,SW,225,0.0,0.9,71,0.00,,,0.00,WUHU216HW,2013-02-26 06:11:00,
2013-02-26 01:16:00,25.7,17.6,30.18,SW,225,0.0,0.9,71,0.00,,,0.00,WUHU216HW,2013-02-26 06:16:00,
2013-02-26 01:21:00,25.6,17.5,30.18,East,90,0.0,1.1,71,0.00,,,0.00,WUHU216HW,2013-02-26 06:21:00,
2013-02-26 01:26:00,25.6,17.7,30.18,ENE,68,0.0,1.1,72,0.00,,,0.00,WUHU216HW,2013-02-26 06:26:00,
2013-02-26 01:31:00,25.6,17.5,30.18,SW,225,0.4,0.7,71,0.00,,,0.00,WUHU216HW,2013-02-26 06:31:00,
2013-02-26 01:36:00,25.7,17.6,30.18,WSW,248,0.4,0.7,71,0.00,,,0.00,WUHU216HW,2013-02-26 06:36:00,
2013-02-26 01:41:00,25.6,18.1,30.18,West,270,0.0,0.9,73,0.00,,,0.00,WUHU216HW,2013-02-26 06:41:00,
2013-02-26 01:46:00,25.6,17.7,30.18,West,270,0.0,0.9,72,0.00,,,0.00,WUHU216HW,2013-02-26 06:46:00,
2013-02-26 01:51:00,25.6,17.7,30.18,WNW,293,0.9,0.9,72,0.00,,,0.00,WUHU216HW,2013-02-26 06:51:00,
2013-02-26 01:56:00,25.7,17.9,30.17,WNW,293,0.0,0.9,72,0.00,,,0.00,WUHU216HW,2013-02-26 06:56:00,
2013-02-26 02:01:00,25.7,17.9,30.17,NW,315,0.0,0.7,72,0.00,,,0.00,WUHU216HW,2013-02-26 07:01:00,
2013-02-26 02:06:00,25.7,17.9,30.17,SSE,158,0.0,0.9,72,0.00,,,0.00,WUHU216HW,2013-02-26 07:06:00,
2013-02-26 02:11:00,25.6,18.4,30.16,ESE,113,0.0,0.9,74,0.00,,,0.00,WUHU216HW,2013-02-26 07:11:00,
2013-02-26 02:16:00,25.6,17.7,30.16,SE,135,0.0,0.4,72,0.00,,,0.00,WUHU216HW,2013-02-26 07:16:00,
2013-02-26 02:21:00,25.6,19.0,30.16,ENE,68,0.4,0.4,76,0.00,,,0.00,WUHU216HW,2013-02-26 07:21:00,
2013-02-26 02:26:00,25.6,18.1,30.17,ENE,68,0.0,0.4,73,0.00,,,0.00,WUHU216HW,2013-02-26 07:26:00,
2013-02-26 02:31:00,25.6,18.1,30.16,ENE,68,0.0,0.4,73,0.00,,,0.00,WUHU216HW,2013-02-26 07:31:00,
2013-02-26 02:36:00,25.6,17.7,30.15,ENE,68,0.0,0.0,72,0.00,,,0.00,WUHU216HW,2013-02-26 07:36:00,
2013-02-26 02:41:00,25.6,17.7,30.14,NW,315,0.2,0.9,72,0.00,,,0.00,WUHU216HW,2013-02-26 07:41:00,
2013-02-26 02:46:00,25.9,18.1,30.16,NW,315,1.1,1.1,72,0.00,,,0.00,WUHU216HW,2013-02-26 07:46:00,
2013-02-26 02:51:00,25.7,17.9,30.14,WNW,293,0.0,1.1,72,0.00,,,0.00,WUHU216HW,2013-02-26 07:51:00,
2013-02-26 02:56:00,25.9,18.1,30.14,WNW,293,0.4,0.7,72,0.00,,,0.00,WUHU216HW,2013-02-26 07:56:00,
2013-02-26 03:01:00,25.9,18.4,30.15,SW,225,1.1,1.6,73,0.00,,,0.00,WUHU216HW,2013-02-26 08:01:00,
2013-02-26 03:06:00,25.9,18.1,30.15,WNW,293,1.1,1.6,72,0.00,,,0.00,WUHU216HW,2013-02-26 08:06:00,
2013-02-26 03:11:00,25.6,18.7,30.14,WNW,293,0.0,1.1,75,0.00,,,0.00,WUHU216HW,2013-02-26 08:11:00,
2013-02-26 03:16:00,25.9,18.7,30.15,West,270,0.4,2.0,74,0.00,,,0.00,WUHU216HW,2013-02-26 08:16:00,
2013-02-26 03:21:00,26.1,18.5,30.14,WNW,293,0.0,2.0,73,0.00,,,0.00,WUHU216HW,2013-02-26 08:21:00,
2013-02-26 03:26:00,25.9,19.0,30.14,WNW,293,0.0,1.8,75,0.00,,,0.00,WUHU216HW,2013-02-26 08:26:00,
2013-02-26 03:31:00,25.7,18.5,30.13,SE,135,0.9,0.9,74,0.00,,,0.00,WUHU216HW,2013-02-26 08:31:00,
2013-02-26 03:36:00,25.7,18.3,30.13,SSW,203,0.0,0.9,73,0.00,,,0.00,WUHU216HW,2013-02-26 08:36:00,
2013-02-26 03:41:00,25.7,18.8,30.12,East,90,0.0,0.9,75,0.00,,,0.00,WUHU216HW,2013-02-26 08:41:00,
2013-02-26 03:47:00,25.9,20.3,30.13,East,90,0.0,0.9,79,0.00,,,0.00,WUHU216HW,2013-02-26 08:47:00,
2013-02-26 03:52:00,25.9,19.6,30.13,SE,135,0.4,1.3,77,0.00,,,0.00,WUHU216HW,2013-02-26 08:52:00,
2013-02-26 03:57:00,25.9,19.0,30.12,SE,135,0.0,1.3,75,0.00,,,0.00,WUHU216HW,2013-02-26 08:57:00,
2013-02-26 04:02:00,25.9,19.4,30.12,South,180,0.0,1.3,76,0.00,,,0.00,WUHU216HW,2013-02-26 09:02:00,
2013-02-26 04:07:00,25.9,19.0,30.12,NW,315,0.4,1.3,75,0.00,,,0.00,WUHU216HW,2013-02-26 09:07:00,
2013-02-26 04:12:00,26.1,19.2,30.12,WSW,248,0.0,0.7,75,0.00,,,0.00,WUHU216HW,2013-02-26 09:12:00,
2013-02-26 04:17:00,26.1,19.5,30.12,NW,315,0.0,0.4,76,0.00,,,0.00,WUHU216HW,2013-02-26 09:17:00,
2013-02-26 04:22:00,26.1,19.2,30.13,NW,315,0.2,0.4,75,0.00,,,0.00,WUHU216HW,2013-02-26 09:22:00,
2013-02-26 04:27:00,26.1,19.2,30.12,NW,315,0.9,1.1,75,0.00,,,0.00,WUHU216HW,2013-02-26 09:27:00,
2013-02-26 04:32:00,26.1,19.2,30.12,WNW,293,0.0,1.1,75,0.00,,,0.00,WUHU216HW,2013-02-26 09:32:00,
2013-02-26 04:37:00,26.3,20.0,30.12,WSW,248,0.0,1.1,77,0.00,,,0.00,WUHU216HW,2013-02-26 09:37:00,
2013-02-26 04:42:00,26.3,19.7,30.12,SW,225,1.1,1.1,76,0.00,,,0.00,WUHU216HW,2013-02-26 09:42:00,
2013-02-26 04:47:00,26.3,19.7,30.13,SSW,203,0.4,1.3,76,0.00,,,0.00,WUHU216HW,2013-02-26 09:47:00,
2013-02-26 04:52:00,26.3,19.4,30.13,WSW,248,1.1,1.3,75,0.00,,,0.00,WUHU216HW,2013-02-26 09:52:00,
2013-02-26 04:57:00,26.5,19.9,30.13,SW,225,0.9,1.1,76,0.00,,,0.00,WUHU216HW,2013-02-26 09:57:00,
2013-02-26 05:02:00,26.5,19.9,30.12,West,270,0.0,1.1,76,0.00,,,0.00,WUHU216HW,2013-02-26 10:02:00,
2013-02-26 05:07:00,26.5,19.9,30.12,South,180,0.9,1.1,76,0.00,,,0.00,WUHU216HW,2013-02-26 10:07:00,
2013-02-26 05:12:00,26.5,19.9,30.12,South,180,0.0,0.9,76,0.00,,,0.00,WUHU216HW,2013-02-26 10:12:00,
2013-02-26 05:17:00,26.6,19.7,30.12,West,270,0.4,0.7,75,0.00,,,0.00,WUHU216HW,2013-02-26 10:17:00,
2013-02-26 05:22:00,26.6,20.4,30.12,SSE,158,0.0,0.7,77,0.00,,,0.00,WUHU216HW,2013-02-26 10:22:00,
2013-02-26 05:27:00,26.6,20.0,30.12,WSW,248,0.0,0.9,76,0.00,,,0.00,WUHU216HW,2013-02-26 10:27:00,
2013-02-26 05:32:00,26.6,20.4,30.13,South,180,0.0,0.9,77,0.00,,,0.00,WUHU216HW,2013-02-26 10:32:00,
2013-02-26 05:37:00,26.6,20.0,30.13,West,270,0.0,0.7,76,0.00,,,0.00,WUHU216HW,2013-02-26 10:37:00,
2013-02-26 05:42:00,26.6,19.7,30.12,WNW,293,0.7,0.7,75,0.00,,,0.00,WUHU216HW,2013-02-26 10:42:00,
2013-02-26 05:47:00,26.8,20.2,30.12,WNW,293,0.2,1.1,76,0.00,,,0.00,WUHU216HW,2013-02-26 10:47:00,
2013-02-26 05:52:00,26.8,20.2,30.13,West,270,0.4,1.1,76,0.00,,,0.00,WUHU216HW,2013-02-26 10:52:00,
2013-02-26 05:57:00,27.2,20.5,30.14,West,270,0.0,0.7,76,0.00,,,0.00,WUHU216HW,2013-02-26 10:57:00,
2013-02-26 06:02:00,27.2,20.3,30.13,WSW,248,0.0,0.9,75,0.00,,,0.00,WUHU216HW,2013-02-26 11:02:00,
2013-02-26 06:07:00,27.2,20.9,30.13,SSE,158,0.0,0.9,77,0.00,,,0.00,WUHU216HW,2013-02-26 11:07:00,
2013-02-26 06:12:00,27.4,20.7,30.13,SE,135,0.4,0.4,76,0.00,,,0.00,WUHU216HW,2013-02-26 11:12:00,
2013-02-26 06:17:00,27.4,20.7,30.13,SW,225,0.9,1.8,76,0.00,,,0.00,WUHU216HW,2013-02-26 11:17:00,
2013-02-26 06:22:00,27.5,20.6,30.13,WSW,248,0.4,1.8,75,0.00,,,0.00,WUHU216HW,2013-02-26 11:22:00,
2013-02-26 06:27:00,27.7,21.1,30.13,SSE,158,0.0,1.1,76,0.00,,,0.00,WUHU216HW,2013-02-26 11:27:00,
2013-02-26 06:31:00,27.7,21.1,30.12,NNW,338,0.0,1.1,76,0.00,,,0.00,WUHU216HW,2013-02-26 11:31:00,
2013-02-26 06:36:00,27.9,21.2,30.12,WSW,248,0.4,0.9,76,0.00,,,0.00,WUHU216HW,2013-02-26 11:36:00,
2013-02-26 06:41:00,28.1,21.2,30.11,NW,315,0.0,1.1,75,0.00,,,0.00,WUHU216HW,2013-02-26 11:41:00,
2013-02-26 06:46:00,28.1,21.4,30.11,WNW,293,0.7,1.3,76,0.00,,,0.00,WUHU216HW,2013-02-26 11:46:00,
2013-02-26 06:51:00,28.4,22.8,30.12,NNE,23,1.1,2.2,79,0.00,,,0.00,WUHU216HW,2013-02-26 11:51:00,
2013-02-26 06:56:00,28.8,23.4,30.12,ENE,68,0.0,2.2,80,0.00,,,0.00,WUHU216HW,2013-02-26 11:56:00,
2013-02-26 07:01:00,29.5,23.1,30.12,ESE,113,0.9,2.2,77,0.00,,,0.00,WUHU216HW,2013-02-26 12:01:00,
2013-02-26 07:06:00,30.1,23.7,30.12,ENE,68,0.4,1.1,77,0.00,,,0.00,WUHU216HW,2013-02-26 12:06:00,
2013-02-26 07:11:00,30.6,24.0,30.11,NNE,23,0.9,1.1,76,0.00,,,0.00,WUHU216HW,2013-02-26 12:11:00,
2013-02-26 07:16:00,31.3,24.3,30.11,ENE,68,0.9,2.5,75,0.00,,,0.00,WUHU216HW,2013-02-26 12:16:00,
2013-02-26 07:21:00,31.9,24.8,30.10,North,0,0.7,2.5,75,0.00,,,0.00,WUHU216HW,2013-02-26 12:21:00,
2013-02-26 07:26:00,32.6,24.6,30.10,ENE,68,2.5,2.5,72,0.00,,,0.00,WUHU216HW,2013-02-26 12:26:00,
2013-02-26 07:31:00,33.1,24.7,30.10,East,90,0.7,2.7,71,0.00,,,0.00,WUHU216HW,2013-02-26 12:31:00,
2013-02-26 07:36:00,33.3,24.8,30.11,SSW,203,0.0,2.7,71,0.00,,,0.00,WUHU216HW,2013-02-26 12:36:00,
2013-02-26 07:41:00,33.5,25.0,30.11,East,90,1.3,2.5,71,0.00,,,0.00,WUHU216HW,2013-02-26 12:41:00,
2013-02-26 07:46:00,33.8,25.4,30.11,East,90,0.0,2.5,71,0.00,,,0.00,WUHU216HW,2013-02-26 12:46:00,
2013-02-26 07:51:00,34.2,25.8,30.11,East,90,0.7,1.8,71,0.00,,,0.00,WUHU216HW,2013-02-26 12:51:00,
2013-02-26 07:56:00,34.2,25.4,30.11,ESE,113,0.0,0.9,70,0.00,,,0.00,WUHU216HW,2013-02-26 12:56:00,
2013-02-26 08:01:00,34.6,26.1,30.12,East,90,0.9,0.9,71,0.00,,,0.00,WUHU216HW,2013-02-26 13:01:00,
2013-02-26 08:06:00,34.6,26.1,30.12,ESE,113,0.7,0.9,71,0.00,,,0.00,WUHU216HW,2013-02-26 13:06:00,
2013-02-26 08:11:00,34.9,26.5,30.13,ESE,113,1.1,1.3,71,0.00,,,0.00,WUHU216HW,2013-02-26 13:11:00,
2013-02-26 08:16:00,34.9,26.5,30.13,SE,135,2.2,3.6,71,0.00,,,0.00,WUHU216HW,2013-02-26 13:16:00,
2013-02-26 08:21:00,35.1,26.7,30.13,SE,135,1.1,3.6,71,0.00,,,0.00,WUHU216HW,2013-02-26 13:21:00,
2013-02-26 08:26:00,35.3,26.8,30.12,East,90,4.0,4.0,71,0.00,,,0.00,WUHU216HW,2013-02-26 13:26:00,
2013-02-26 08:31:00,35.6,26.5,30.12,ESE,113,4.7,7.6,69,0.00,,,0.00,WUHU216HW,2013-02-26 13:31:00,
2013-02-26 08:36:00,36.0,26.8,30.11,East,90,4.5,7.6,69,0.00,,,0.00,WUHU216HW,2013-02-26 13:36:00,
2013-02-26 08:41:00,36.0,26.5,30.11,East,90,2.0,5.1,68,0.00,,,0.00,WUHU216HW,2013-02-26 13:41:00,
2013-02-26 08:46:00,36.4,26.8,30.11,East,90,1.1,4.5,68,0.00,,,0.00,WUHU216HW,2013-02-26 13:46:00,
2013-02-26 08:51:00,36.4,26.8,30.11,East,90,1.1,1.8,68,0.00,,,0.00,WUHU216HW,2013-02-26 13:51:00,
2013-02-26 08:56:00,36.5,26.7,30.11,East,90,1.6,3.1,67,0.00,,,0.00,WUHU216HW,2013-02-26 13:56:00,
2013-02-26 09:01:00,36.7,26.8,30.12,ENE,68,2.5,3.1,67,0.00,,,0.00,WUHU216HW,2013-02-26 14:01:00,
2013-02-26 09:07:00,36.9,27.0,30.11,ENE,68,3.6,3.6,67,0.00,,,0.00,WUHU216HW,2013-02-26 14:07:00,
2013-02-26 09:12:00,36.9,27.0,30.11,East,90,1.8,3.6,67,0.00,,,0.00,WUHU216HW,2013-02-26 14:12:00,
2013-02-26 09:17:00,37.1,26.7,30.11,ESE,113,1.8,3.4,66,0.00,,,0.00,WUHU216HW,2013-02-26 14:17:00,
2013-02-26 09:22:00,37.1,26.7,30.12,ESE,113,2.7,3.4,66,0.00,,,0.00,WUHU216HW,2013-02-26 14:22:00,
2013-02-26 09:27:00,37.1,26.7,30.11,East,90,1.8,3.4,66,0.00,,,0.00,WUHU216HW,2013-02-26 14:27:00,
2013-02-26 09:32:00,37.1,26.7,30.11,East,90,0.7,3.4,66,0.00,,,0.00,WUHU216HW,2013-02-26 14:32:00,
2013-02-26 09:37:00,37.1,26.7,30.11,East,90,2.5,2.9,66,0.00,,,0.00,WUHU216HW,2013-02-26 14:37:00,
2013-02-26 09:42:00,37.1,27.2,30.11,East,90,2.5,3.4,67,0.00,,,0.00,WUHU216HW,2013-02-26 14:42:00,
2013-02-26 09:47:00,36.7,27.2,30.10,East,90,3.8,4.0,68,0.00,,,0.00,WUHU216HW,2013-02-26 14:47:00,
2013-02-26 09:52:00,36.7,27.2,30.10,East,90,4.5,4.5,68,0.00,,,0.00,WUHU216HW,2013-02-26 14:52:00,
2013-02-26 09:57:00,36.5,27.0,30.10,NNE,23,1.8,4.5,68,0.00,,,0.00,WUHU216HW,2013-02-26 14:57:00,
2013-02-26 10:02:00,36.5,27.4,30.09,ENE,68,2.2,4.5,69,0.00,,,0.00,WUHU216HW,2013-02-26 15:02:00,
2013-02-26 10:07:00,36.5,27.4,30.08,ENE,68,3.1,3.6,69,0.00,,,0.00,WUHU216HW,2013-02-26 15:07:00,
2013-02-26 10:12:00,36.4,27.5,30.08,North,0,6.5,6.5,70,0.01,,,0.01,WUHU216HW,2013-02-26 15:12:00,
2013-02-26 10:17:00,36.2,27.4,30.08,ESE,113,5.1,6.5,70,0.01,,,0.01,WUHU216HW,2013-02-26 15:17:00,
2013-02-26 10:22:00,36.2,27.0,30.08,ENE,68,3.1,6.3,69,0.01,,,0.01,WUHU216HW,2013-02-26 15:22:00,
2013-02-26 10:27:00,36.2,27.7,30.08,NE,45,1.8,6.3,71,0.01,,,0.01,WUHU216HW,2013-02-26 15:27:00,
2013-02-26 10:32:00,36.4,27.9,30.08,ENE,68,1.8,3.6,71,0.01,,,0.01,WUHU216HW,2013-02-26 15:32:00,
2013-02-26 10:37:00,36.4,28.2,30.08,NE,45,2.5,3.6,72,0.01,,,0.01,WUHU216HW,2013-02-26 15:37:00,
2013-02-26 10:42:00,36.4,28.2,30.08,NE,45,2.2,3.4,72,0.01,,,0.01,WUHU216HW,2013-02-26 15:42:00,
2013-02-26 10:47:00,36.4,27.9,30.07,NE,45,1.1,4.0,71,0.01,,,0.01,WUHU216HW,2013-02-26 15:47:00,
2013-02-26 10:53:00,36.4,27.9,30.07,East,90,1.8,4.0,71,0.01,,,0.01,WUHU216HW,2013-02-26 15:53:00,
2013-02-26 10:58:00,36.7,28.3,30.08,ENE,68,2.2,2.5,71,0.01,,,0.01,WUHU216HW,2013-02-26 15:58:00,
2013-02-26 11:03:00,36.7,28.3,30.07,East,90,1.8,2.5,71,0.01,,,0.01,WUHU216HW,2013-02-26 16:03:00,
2013-02-26 11:08:00,36.9,28.5,30.07,ENE,68,2.7,3.6,71,0.01,,,0.01,WUHU216HW,2013-02-26 16:08:00,
2013-02-26 11:13:00,36.7,27.9,30.07,East,90,3.1,3.6,70,0.00,,,0.01,WUHU216HW,2013-02-26 16:13:00,
2013-02-26 11:18:00,36.7,28.5,30.07,East,90,1.8,3.6,72,0.00,,,0.01,WUHU216HW,2013-02-26 16:18:00,
2013-02-26 11:23:00,36.7,28.3,30.06,East,90,2.7,4.0,71,0.00,,,0.01,WUHU216HW,2013-02-26 16:23:00,
2013-02-26 11:28:00,36.4,28.2,30.06,ENE,68,3.1,4.0,72,0.00,,,0.01,WUHU216HW,2013-02-26 16:28:00,
2013-02-26 11:33:00,36.2,28.4,30.07,ENE,68,3.8,5.4,73,0.00,,,0.01,WUHU216HW,2013-02-26 16:33:00,
2013-02-26 11:38:00,36.0,28.8,30.06,ENE,68,4.5,5.8,75,0.00,,,0.01,WUHU216HW,2013-02-26 16:38:00,
2013-02-26 11:43:00,36.0,29.2,30.05,NE,45,4.0,6.0,76,0.00,,,0.01,WUHU216HW,2013-02-26 16:43:00,
2013-02-26 11:48:00,35.8,29.6,30.05,NNE,23,3.6,6.0,78,0.01,,,0.02,WUHU216HW,2013-02-26 16:48:00,
2013-02-26 11:53:00,35.6,30.1,30.04,NNE,23,2.7,5.1,80,0.01,,,0.02,WUHU216HW,2013-02-26 16:53:00,
2013-02-26 11:58:00,35.6,29.4,30.04,North,0,2.5,5.1,78,0.02,,,0.03,WUHU216HW,2013-02-26 16:58:00,
2013-02-26 12:03:00,35.6,30.1,30.04,NNE,23,2.0,3.8,80,0.02,,,0.03,WUHU216HW,2013-02-26 17:03:00,
2013-02-26 12:08:00,35.6,30.3,30.03,NNE,23,1.1,2.5,81,0.02,,,0.03,WUHU216HW,2013-02-26 17:08:00,
2013-02-26 12:13:00,35.6,30.1,30.03,NNW,338,3.4,4.9,80,0.02,,,0.03,WUHU216HW,2013-02-26 17:13:00,
2013-02-26 12:18:00,36.0,31.3,30.02,NNE,23,2.7,4.9,83,0.02,,,0.03,WUHU216HW,2013-02-26 17:18:00,
2013-02-26 12:23:00,35.8,30.5,30.01,North,0,1.3,4.3,81,0.02,,,0.03,WUHU216HW,2013-02-26 17:23:00,
2013-02-26 12:28:00,36.0,30.7,30.01,East,90,0.4,4.3,81,0.02,,,0.03,WUHU216HW,2013-02-26 17:28:00,
2013-02-26 12:33:00,36.2,30.9,30.00,ENE,68,2.2,3.8,81,0.02,,,0.03,WUHU216HW,2013-02-26 17:33:00,
2013-02-26 12:38:00,36.2,30.9,30.00,ENE,68,0.4,2.5,81,0.02,,,0.03,WUHU216HW,2013-02-26 17:38:00,
2013-02-26 12:43:00,36.4,31.7,29.99,ENE,68,0.7,3.4,83,0.03,,,0.04,WUHU216HW,2013-02-26 17:43:00,
2013-02-26 12:49:00,36.4,32.0,29.99,ENE,68,2.2,3.4,84,0.02,,,0.04,WUHU216HW,2013-02-26 17:49:00,
2013-02-26 12:54:00,36.4,31.7,29.98,ENE,68,3.8,3.8,83,0.02,,,0.04,WUHU216HW,2013-02-26 17:54:00,
2013-02-26 12:59:00,36.5,32.7,29.97,NNE,23,2.0,3.8,86,0.01,,,0.04,WUHU216HW,2013-02-26 17:59:00,
2013-02-26 13:04:00,37.1,32.9,29.96,NE,45,3.6,4.9,85,0.02,,,0.05,WUHU216HW,2013-02-26 18:04:00,
2013-02-26 13:09:00,36.9,32.5,29.96,NE,45,1.3,5.1,84,0.02,,,0.05,WUHU216HW,2013-02-26 18:09:00,
2013-02-26 13:14:00,37.1,33.5,29.95,NNE,23,6.9,6.9,87,0.02,,,0.05,WUHU216HW,2013-02-26 18:14:00,
2013-02-26 13:19:00,36.7,33.1,29.95,NE,45,2.5,6.9,87,0.02,,,0.05,WUHU216HW,2013-02-26 18:19:00,
2013-02-26 13:24:00,36.9,33.7,29.94,NNE,23,3.1,4.9,88,0.03,,,0.06,WUHU216HW,2013-02-26 18:24:00,
2013-02-26 13:29:00,37.1,33.5,29.94,NNE,23,2.2,5.4,87,0.03,,,0.06,WUHU216HW,2013-02-26 18:29:00,
2013-02-26 13:34:00,37.1,33.9,29.93,NE,45,2.5,5.8,88,0.04,,,0.07,WUHU216HW,2013-02-26 18:34:00,
2013-02-26 13:39:00,37.1,33.9,29.92,ENE,68,4.0,6.5,88,0.04,,,0.07,WUHU216HW,2013-02-26 18:39:00,
2013-02-26 13:44:00,37.1,33.9,29.92,NNE,23,3.1,8.1,88,0.03,,,0.07,WUHU216HW,2013-02-26 18:44:00,
2013-02-26 13:49:00,37.4,34.7,29.91,North,0,4.0,8.5,90,0.04,,,0.08,WUHU216HW,2013-02-26 18:49:00,
2013-02-26 13:54:00,37.6,34.9,29.90,NE,45,4.7,8.5,90,0.05,,,0.09,WUHU216HW,2013-02-26 18:54:00,
2013-02-26 13:59:00,37.8,35.1,29.90,East,90,5.6,7.6,90,0.05,,,0.09,WUHU216HW,2013-02-26 18:59:00,
2013-02-26 14:04:00,37.8,35.1,29.90,NE,45,5.4,6.7,90,0.05,,,0.10,WUHU216HW,2013-02-26 19:04:00,
2013-02-26 14:09:00,37.8,35.1,29.90,NE,45,2.7,6.7,90,0.06,,,0.11,WUHU216HW,2013-02-26 19:09:00,
2013-02-26 14:14:00,37.8,35.4,29.89,NNE,23,5.4,6.5,91,0.07,,,0.12,WUHU216HW,2013-02-26 19:14:00,
2013-02-26 14:19:00,37.8,35.1,29.89,NE,45,7.2,7.2,90,0.08,,,0.13,WUHU216HW,2013-02-26 19:19:00,
2013-02-26 14:24:00,37.8,35.1,29.88,NE,45,8.5,8.5,90,0.08,,,0.14,WUHU216HW,2013-02-26 19:24:00,
2013-02-26 14:29:00,37.8,35.4,29.87,NNE,23,4.7,8.5,91,0.09,,,0.15,WUHU216HW,2013-02-26 19:29:00,
2013-02-26 14:34:00,37.8,35.4,29.87,NE,45,6.3,6.9,91,0.09,,,0.16,WUHU216HW,2013-02-26 19:34:00,
2013-02-26 14:40:00,38.0,35.6,29.87,ENE,68,5.1,6.3,91,0.10,,,0.17,WUHU216HW,2013-02-26 19:40:00,
2013-02-26 14:45:00,38.3,35.9,29.87,NE,45,3.6,7.4,91,0.11,,,0.19,WUHU216HW,2013-02-26 19:45:00,
2013-02-26 14:50:00,38.5,36.4,29.86,East,90,5.4,8.3,92,0.13,,,0.21,WUHU216HW,2013-02-26 19:50:00,
2013-02-26 14:55:00,38.9,36.5,29.84,ESE,113,9.4,9.6,91,0.13,,,0.22,WUHU216HW,2013-02-26 19:55:00,
2013-02-26 15:00:00,39.2,37.1,29.84,NE,45,7.2,10.5,92,0.13,,,0.23,WUHU216HW,2013-02-26 20:00:00,
2013-02-26 15:05:00,39.2,37.1,29.84,ESE,113,4.9,10.5,92,0.14,,,0.24,WUHU216HW,2013-02-26 20:05:00,
2013-02-26 15:10:00,39.4,37.3,29.83,NE,45,6.9,8.5,92,0.14,,,0.25,WUHU216HW,2013-02-26 20:10:00,
2013-02-26 15:15:00,39.6,37.2,29.82,NE,45,4.7,8.5,91,0.13,,,0.25,WUHU216HW,2013-02-26 20:15:00,
2013-02-26 15:20:00,40.0,37.3,29.83,NNE,23,4.0,10.5,90,0.14,,,0.27,WUHU216HW,2013-02-26 20:20:00,
2013-02-26 15:25:00,40.3,37.6,29.82,NE,45,7.6,10.5,90,0.13,,,0.27,WUHU216HW,2013-02-26 20:25:00,
2013-02-26 15:30:00,40.3,37.6,29.81,NNE,23,6.9,9.4,90,0.13,,,0.28,WUHU216HW,2013-02-26 20:30:00,
2013-02-26 15:35:00,40.5,37.8,29.81,ENE,68,4.0,9.4,90,0.13,,,0.29,WUHU216HW,2013-02-26 20:35:00,
2013-02-26 15:40:00,40.3,37.6,29.82,NE,45,5.4,9.4,90,0.12,,,0.30,WUHU216HW,2013-02-26 20:40:00,
2013-02-26 15:45:00,40.3,37.4,29.81,East,90,4.5,9.4,89,0.12,,,0.31,WUHU216HW,2013-02-26 20:45:00,
2013-02-26 15:50:00,40.5,37.8,29.81,NNE,23,6.9,9.2,90,0.11,,,0.32,WUHU216HW,2013-02-26 20:50:00,
2013-02-26 15:55:00,40.3,37.6,29.80,NE,45,5.1,9.2,90,0.11,,,0.33,WUHU216HW,2013-02-26 20:55:00,
2013-02-26 16:00:00,40.1,37.7,29.79,NNE,23,3.8,9.2,91,0.11,,,0.35,WUHU216HW,2013-02-26 21:00:00,
2013-02-26 16:06:00,40.5,38.1,29.78,NE,45,10.3,10.5,91,0.12,,,0.36,WUHU216HW,2013-02-26 21:06:00,
2013-02-26 16:11:00,40.7,38.0,29.78,NE,45,8.7,10.5,90,0.12,,,0.37,WUHU216HW,2013-02-26 21:11:00,
2013-02-26 16:16:00,40.7,38.0,29.77,NNE,23,5.8,10.3,90,0.12,,,0.37,WUHU216HW,2013-02-26 21:16:00,
2013-02-26 16:21:00,40.7,38.0,29.77,NE,45,11.4,11.4,90,0.10,,,0.37,WUHU216HW,2013-02-26 21:21:00,
2013-02-26 16:26:00,40.7,38.0,29.77,NE,45,5.4,11.4,90,0.12,,,0.39,WUHU216HW,2013-02-26 21:26:00,
2013-02-26 16:31:00,40.7,38.0,29.76,NE,45,6.0,9.8,90,0.11,,,0.39,WUHU216HW,2013-02-26 21:31:00,
2013-02-26 16:36:00,40.7,38.0,29.75,ENE,68,4.0,9.8,90,0.12,,,0.41,WUHU216HW,2013-02-26 21:36:00,
2013-02-26 16:41:00,40.7,38.3,29.74,NE,45,6.5,10.7,91,0.13,,,0.43,WUHU216HW,2013-02-26 21:41:00,
2013-02-26 16:46:00,40.7,38.3,29.74,NE,45,7.6,10.7,91,0.12,,,0.43,WUHU216HW,2013-02-26 21:46:00,
2013-02-26 16:51:00,40.7,38.3,29.74,NE,45,13.2,13.2,91,0.11,,,0.43,WUHU216HW,2013-02-26 21:51:00,
2013-02-26 16:56:00,40.9,38.4,29.73,ENE,68,3.8,13.2,91,0.10,,,0.43,WUHU216HW,2013-02-26 21:56:00,
2013-02-26 17:01:00,40.7,38.3,29.74,NNE,23,6.9,10.5,91,0.10,,,0.45,WUHU216HW,2013-02-26 22:01:00,
2013-02-26 17:06:00,40.7,38.3,29.73,North,0,4.9,10.5,91,0.09,,,0.45,WUHU216HW,2013-02-26 22:06:00,
2013-02-26 17:11:00,40.7,38.3,29.72,NE,45,4.7,9.6,91,0.10,,,0.47,WUHU216HW,2013-02-26 22:11:00,
2013-02-26 17:16:00,40.7,38.3,29.73,NNE,23,6.3,9.6,91,0.11,,,0.48,WUHU216HW,2013-02-26 22:16:00,
2013-02-26 17:21:00,40.7,38.5,29.72,North,0,5.1,8.5,92,0.10,,,0.48,WUHU216HW,2013-02-26 22:21:00,
2013-02-26 17:26:00,40.7,38.5,29.71,NE,45,7.2,8.7,92,0.11,,,0.50,WUHU216HW,2013-02-26 22:26:00,
2013-02-26 17:31:00,40.7,38.5,29.71,NNE,23,3.8,8.7,92,0.11,,,0.50,WUHU216HW,2013-02-26 22:31:00,
2013-02-26 17:36:00,40.7,38.5,29.71,NNE,23,3.4,8.9,92,0.11,,,0.52,WUHU216HW,2013-02-26 22:36:00,
2013-02-26 17:41:00,40.7,38.5,29.70,NNE,23,4.0,8.9,92,0.09,,,0.52,WUHU216HW,2013-02-26 22:41:00,
2013-02-26 17:46:00,40.7,38.5,29.70,NE,45,3.8,8.7,92,0.10,,,0.53,WUHU216HW,2013-02-26 22:46:00,
2013-02-26 17:51:00,40.5,38.3,29.70,NNW,338,4.0,7.6,92,0.11,,,0.54,WUHU216HW,2013-02-26 22:51:00,
2013-02-26 17:56:00,40.5,38.3,29.70,NE,45,4.7,7.6,92,0.11,,,0.54,WUHU216HW,2013-02-26 22:56:00,
2013-02-26 18:01:00,40.7,38.0,29.70,NNW,338,2.5,5.1,90,0.11,,,0.56,WUHU216HW,2013-02-26 23:01:00,
2013-02-26 18:06:00,40.7,37.1,29.72,NNW,338,0.7,5.1,87,0.11,,,0.56,WUHU216HW,2013-02-26 23:06:00,
2013-02-26 18:11:00,40.9,37.3,29.72,NW,315,0.4,3.1,87,0.10,,,0.57,WUHU216HW,2013-02-26 23:11:00,
2013-02-26 18:16:00,41.0,37.5,29.72,SSW,203,1.1,3.1,87,0.10,,,0.58,WUHU216HW,2013-02-26 23:16:00,
2013-02-26 18:21:00,41.2,37.9,29.72,NNW,338,0.4,3.1,88,0.13,,,0.61,WUHU216HW,2013-02-26 23:21:00,
2013-02-26 18:26:00,41.2,38.8,29.72,NNE,23,2.7,6.7,91,0.12,,,0.62,WUHU216HW,2013-02-26 23:26:00,
2013-02-26 18:31:00,41.4,38.7,29.72,NE,45,3.8,6.7,90,0.14,,,0.64,WUHU216HW,2013-02-26 23:31:00,
2013-02-26 18:36:00,41.4,38.4,29.73,ESE,113,0.0,3.8,89,0.14,,,0.66,WUHU216HW,2013-02-26 23:36:00,
2013-02-26 18:41:00,41.4,38.7,29.73,ENE,68,1.1,2.9,90,0.17,,,0.69,WUHU216HW,2013-02-26 23:41:00,
2013-02-26 18:46:00,41.4,38.7,29.74,SE,135,1.1,2.5,90,0.17,,,0.70,WUHU216HW,2013-02-26 23:46:00,
2013-02-26 18:51:00,41.4,38.7,29.74,NE,45,2.7,2.7,90,0.19,,,0.73,WUHU216HW,2013-02-26 23:51:00,
2013-02-26 18:56:00,41.4,38.7,29.74,NE,45,2.2,4.5,90,0.20,,,0.74,WUHU216HW,2013-02-26 23:56:00,
2013-02-26 19:01:00,41.6,39.2,29.74,East,90,2.7,4.5,91,0.19,,,0.75,WUHU216HW,2013-02-27 00:01:00,
2013-02-26 19:06:00,41.4,38.7,29.74,East,90,1.8,3.4,90,0.20,,,0.76,WUHU216HW,2013-02-27 00:06:00,
2013-02-26 19:11:00,41.4,38.7,29.73,ENE,68,1.1,2.9,90,0.18,,,0.76,WUHU216HW,2013-02-27 00:11:00,
2013-02-26 19:16:00,41.4,39.0,29.72,NE,45,1.1,2.5,91,0.19,,,0.77,WUHU216HW,2013-02-27 00:16:00,
2013-02-26 19:21:00,41.4,39.2,29.72,NNE,23,1.8,3.6,92,0.17,,,0.78,WUHU216HW,2013-02-27 00:21:00,
2013-02-26 19:27:00,41.4,39.2,29.72,ENE,68,1.8,4.3,92,0.16,,,0.78,WUHU216HW,2013-02-27 00:27:00,
2013-02-26 19:32:00,41.4,39.5,29.71,ENE,68,3.4,5.1,93,0.14,,,0.78,WUHU216HW,2013-02-27 00:32:00,
2013-02-26 19:37:00,41.4,39.5,29.72,NNE,23,4.3,5.1,93,0.12,,,0.79,WUHU216HW,2013-02-27 00:37:00,
2013-02-26 19:42:00,41.0,39.2,29.72,NNE,23,2.0,4.7,93,0.11,,,0.80,WUHU216HW,2013-02-27 00:42:00,
2013-02-26 19:47:00,40.9,39.0,29.71,NNE,23,1.3,4.7,93,0.09,,,0.80,WUHU216HW,2013-02-27 00:47:00,
2013-02-26 19:52:00,40.9,38.2,29.72,North,0,0.4,3.8,90,0.07,,,0.80,WUHU216HW,2013-02-27 00:52:00,
2013-02-26 19:57:00,40.9,38.2,29.72,WNW,293,0.9,1.6,90,0.06,,,0.80,WUHU216HW,2013-02-27 00:57:00,
2013-02-26 20:02:00,41.0,38.6,29.71,SE,135,0.7,2.2,91,0.05,,,0.80,WUHU216HW,2013-02-27 01:02:00,
2013-02-26 20:07:00,41.0,38.6,29.70,ESE,113,3.6,3.6,91,0.04,,,0.80,WUHU216HW,2013-02-27 01:07:00,
2013-02-26 20:12:00,40.9,38.2,29.70,East,90,1.8,3.6,90,0.04,,,0.80,WUHU216HW,2013-02-27 01:12:00,
2013-02-26 20:17:00,40.7,38.3,29.70,ENE,68,0.4,3.4,91,0.03,,,0.80,WUHU216HW,2013-02-27 01:17:00,
2013-02-26 20:22:00,40.7,38.3,29.69,ENE,68,1.1,2.0,91,0.02,,,0.80,WUHU216HW,2013-02-27 01:22:00,
2013-02-26 20:27:00,40.9,38.4,29.68,East,90,3.4,3.4,91,0.02,,,0.80,WUHU216HW,2013-02-27 01:27:00,
2013-02-26 20:32:00,40.7,38.3,29.67,East,90,3.8,4.7,91,0.03,,,0.81,WUHU216HW,2013-02-27 01:32:00,
2013-02-26 20:37:00,40.7,38.3,29.68,East,90,4.3,5.1,91,0.02,,,0.81,WUHU216HW,2013-02-27 01:37:00,
2013-02-26 20:42:00,40.7,38.3,29.67,East,90,1.1,5.1,91,0.01,,,0.81,WUHU216HW,2013-02-27 01:42:00,
2013-02-26 22:21:00,38.7,36.0,29.67,WSW,248,1.1,1.1,90,0.00,,,0.81,WUHU216HW,2013-02-27 03:21:00,
2013-02-26 22:27:00,38.7,36.0,29.67,WSW,248,0.4,1.3,90,0.00,,,0.82,WUHU216HW,2013-02-27 03:27:00,
2013-02-26 22:32:00,38.7,36.3,29.67,SSE,158,0.7,1.3,91,0.00,,,0.82,WUHU216HW,2013-02-27 03:32:00,
2013-02-26 22:37:00,38.7,36.0,29.66,SSW,203,0.4,1.8,90,0.00,,,0.82,WUHU216HW,2013-02-27 03:37:00,
2013-02-26 22:42:00,38.7,36.0,29.66,SE,135,0.9,1.8,90,0.00,,,0.82,WUHU216HW,2013-02-27 03:42:00,
2013-02-26 22:47:00,38.7,36.3,29.66,SSE,158,1.1,2.0,91,0.00,,,0.82,WUHU216HW,2013-02-27 03:47:00,
2013-02-26 22:52:00,38.5,35.8,29.66,SW,225,0.9,4.0,90,0.00,,,0.82,WUHU216HW,2013-02-27 03:52:00,
2013-02-26 22:57:00,38.5,35.8,29.66,SSW,203,0.0,4.0,90,0.00,,,0.82,WUHU216HW,2013-02-27 03:57:00,
2013-02-26 23:02:00,38.3,35.6,29.67,WSW,248,0.7,1.1,90,0.00,,,0.82,WUHU216HW,2013-02-27 04:02:00,
2013-02-26 23:07:00,38.3,35.6,29.66,West,270,0.4,1.1,90,0.00,,,0.82,WUHU216HW,2013-02-27 04:07:00,
2013-02-26 23:12:00,38.3,35.6,29.66,WSW,248,0.0,1.1,90,0.00,,,0.82,WUHU216HW,2013-02-27 04:12:00,
2013-02-26 23:18:00,38.2,35.5,29.66,WSW,248,0.4,1.1,90,0.00,,,0.82,WUHU216HW,2013-02-27 04:18:00,
2013-02-26 23:22:00,38.2,35.5,29.65,WSW,248,0.0,0.9,90,0.00,,,0.82,WUHU216HW,2013-02-27 04:22:00,
2013-02-26 23:28:00,38.2,35.5,29.65,WSW,248,0.0,0.7,90,0.00,,,0.82,WUHU216HW,2013-02-27 04:28:00,
2013-02-26 23:33:00,38.3,35.6,29.65,SSW,203,1.1,1.1,90,0.00,,,0.82,WUHU216HW,2013-02-27 04:33:00,
2013-02-26 23:38:00,38.3,35.6,29.64,West,270,0.4,1.1,90,0.00,,,0.82,WUHU216HW,2013-02-27 04:38:00,
2013-02-26 23:43:00,38.2,35.5,29.65,West,270,0.0,0.7,90,0.00,,,0.82,WUHU216HW,2013-02-27 04:43:00,
2013-02-26 23:48:00,38.2,35.5,29.64,NNE,23,0.0,0.7,90,0.01,,,0.83,WUHU216HW,2013-02-27 04:48:00,
2013-02-26 23:53:00,38.2,35.5,29.64,West,270,0.4,1.1,90,0.01,,,0.83,WUHU216HW,2013-02-27 04:53:00,
2013-02-26 23:58:00,38.2,35.5,29.64,West,270,0.0,1.1,90,0.01,,,0.83,WUHU216HW,2013-02-27 04:58:00,